{"data":{"norad_id":63257,"epoch":"2026-05-25T04:34:05.743200Z","epoch_age_seconds":61739,"freshness":"FRESH","line1":"1 63257U 25052AZ  26145.19034425  .00003860  00000+0  30773-3 0  9992","line2":"2 63257  97.7509  40.3410 0002031  58.6650 301.4772 15.00924770 65358","mean_motion":15.0092477,"eccentricity":0.0002031,"inclination_deg":97.7509,"raan_deg":40.341,"arg_perigee_deg":58.665,"mean_anomaly_deg":301.4772,"bstar":0.00030773,"rev_number":6535,"period_min":95.940851186032,"perigee_km":562.63338410024,"apogee_km":565.45329775473,"semimajor_km":6942.1803409275,"source":"CELESTRAK","updated_at":"2026-05-25T13:38:03.608937Z"}}